#timestamp,LO_Frequency,Hit,StdDev 
1568941215.6,286047010.5,Y
1568941235.4,286046997.2,P
1568941255.3,286046995.0,N
1568941275.1,286046997.9,N
1568941276.0,286046997.9,N
1568941295.8,286046997.7,N
1568941315.7,286046995.2,N
1568941335.5,286046997.2,N
1568941355.3,286046997.1,N
1568941375.2,286046997.1,N
1568941395.0,286046997.8,N
1568941395.9,286046997.8,N
1568941415.8,286046996.7,N
1568941435.6,286046997.3,N
1568941455.4,286046999.0,N
1568941475.3,286046999.3,N
1568941495.1,286046997.4,N
1568941515.8,286046996.8,N
1568941535.7,286046997.0,N
1568941555.5,286046998.3,N
1568941575.4,286047000.8,N
1568941595.2,286046998.5,N
1568941615.0,286046998.9,N
1568941615.9,286046998.9,N
1568941635.8,286047000.9,N
1568941655.6,286047001.7,N
1568941675.4,286047003.7,N
1568941695.3,286047004.2,N
1568941715.1,286047006.0,N
1568941735.9,286047009.2,N
1568941755.7,286047006.1,N
1568941775.5,286047008.0,N
1568941795.4,286047010.7,N
1568941815.2,286047009.9,N
1568941835.0,286047012.2,N
1568941835.9,286047012.2,N
1568941855.8,286047011.8,N
1568941875.6,286047011.7,N
1568941895.5,286047012.2,N
1568941915.3,286047011.8,N
1568941935.1,286047011.5,N
1568941955.9,286047011.1,N
1568941975.7,286047010.5,N
1568941995.5,286047008.2,N
1568942015.4,286047006.5,N
1568942035.2,286047008.6,N
1568942055.1,286047007.8,N
1568942056.0,286047007.8,N
1568942075.8,286047012.3,N
1568942095.6,286047011.4,N
1568942115.5,286047015.4,Y
1568942135.3,286047010.6,P
1568942155.2,286047012.4,P
1568942175.9,286047011.7,P
1568942195.7,286047011.9,Y
1568942215.6,286047000.2,P
1568942235.4,286047002.3,N
1568942255.2,286047001.5,N
1568942275.1,286047003.9,N
1568942276.0,286047003.9,N
1568942295.8,286047004.4,N
1568942315.7,286047001.9,N
1568942335.5,286047002.2,N
1568942355.3,286046998.5,N
1568942375.2,286046998.9,N
1568942395.0,286046999.5,N
1568942395.9,286046999.5,N
1568942415.8,286046996.9,N
1568942435.6,286046995.7,N
1568942455.4,286046994.2,N
1568942475.3,286046992.0,N
1568942495.1,286046994.7,N
1568942515.8,286046993.9,N
1568942535.7,286046995.7,N
1568942555.5,286046995.2,N
1568942575.4,286046997.2,N
1568942595.2,286046997.2,N
1568942615.0,286046997.7,N
1568942615.9,286046997.7,N
1568942635.8,286046997.8,N
1568942655.6,286046996.1,N
1568942675.4,286046998.0,N
1568942695.3,286046997.7,N
1568942715.1,286046996.7,N
1568942735.9,286046999.2,N
1568942755.7,286047011.9,Y
1568942775.5,286047001.1,P
1568942795.4,286047001.2,N
1568942815.2,286047001.2,N
1568942835.1,286047000.8,N
1568942836.0,286047000.8,N
1568942855.8,286046999.3,N
1568942875.6,286046996.8,Y
1568942895.5,286046995.6,P
1568942915.3,286046995.9,N
1568942935.1,286046993.4,P
1568942955.9,286046994.5,N
1568942975.7,286046992.6,Y
1568942995.6,286046995.0,P
1568943015.4,286046994.1,P
1568943035.2,286046992.8,P
1568943055.1,286046996.3,Y
1568943056.0,286046996.3,P
1568943075.8,286047002.8,P
1568943095.7,286047000.8,N
1568943115.5,286047002.6,N
1568943135.3,286047002.4,N
1568943155.2,286047001.9,N
1568943175.9,286046999.7,N
1568943195.7,286047001.6,N
1568943215.6,286047003.4,N
1568943235.4,286047006.6,N
1568943255.3,286047010.5,Y
1568943275.1,286047010.2,P
1568943276.0,286047010.2,N
1568943295.8,286047011.6,N
1568943315.7,286047012.7,Y
1568943335.5,286047004.9,P
1568943355.3,286047005.7,P
1568943375.2,286047007.4,P
1568943395.0,286047004.9,Y
1568943395.9,286047004.9,P
1568943415.8,286046998.3,N
1568943435.6,286047000.7,N
1568943455.4,286046999.8,N
1568943475.3,286047002.8,N
1568943495.1,286047001.0,N
1568943515.8,286046999.9,N
1568943535.7,286047000.8,N
1568943555.5,286046999.5,N
1568943575.4,286046999.2,N
1568943595.2,286046996.6,N
1568943615.0,286046999.1,N
1568943615.9,286046999.1,N
1568943635.8,286046997.1,N
1568943655.6,286046997.4,N
1568943675.4,286046997.0,N
1568943695.3,286046998.3,N
1568943715.1,286047000.8,N
1568943735.9,286046999.2,N
1568943755.7,286046996.8,N
1568943775.5,286046997.5,N
1568943795.4,286046996.1,N
1568943815.2,286046992.2,Y
1568943835.1,286046991.9,P
1568943836.0,286046991.9,N
1568943855.8,286046994.0,N
1568943875.6,286046993.6,N
1568943895.5,286046992.1,N
1568943915.3,286046994.2,N
1568943935.1,286046994.7,N
1568943955.9,286046993.9,N
1568943975.7,286046993.0,Y
1568943995.6,286046997.5,P
1568944015.4,286046993.8,P
1568944035.2,286046992.1,P
1568944055.1,286046991.9,Y
1568944056.0,286046991.9,P
1568944075.8,286046998.2,N
1568944095.7,286047001.1,N
1568944115.5,286047000.3,N
1568944135.3,286047001.7,N
1568944155.2,286047001.6,N
1568944175.9,286047001.9,N
1568944195.7,286047002.0,N
1568944215.6,286047004.0,N
1568944235.4,286047004.2,N
1568944255.2,286047002.2,N
1568944275.1,286047004.1,N
1568944276.0,286047004.1,N
1568944295.8,286047001.6,N
1568944315.7,286047000.0,N
1568944335.5,286047000.8,N
1568944355.3,286047000.2,N
1568944375.2,286047001.2,N
1568944395.0,286046998.5,N
1568944395.9,286046998.5,N
1568944415.8,286046999.0,N
1568944435.6,286046996.9,N
1568944455.4,286047000.8,N
1568944475.3,286046999.3,N
1568944495.1,286046999.0,N
1568944515.9,286046999.3,N
1568944535.7,286046998.4,N
1568944555.5,286046996.5,N
1568944575.4,286046995.1,N
1568944595.2,286046995.7,N
1568944615.0,286046997.8,N
1568944615.9,286046997.8,N
1568944635.8,286046996.5,N
1568944655.6,286046996.6,N
1568944675.4,286046996.5,N
1568944695.3,286046997.0,N
1568944715.1,286046997.1,N
1568944735.9,286046999.1,N
1568944755.7,286047000.8,N
1568944775.5,286047000.2,N
1568944795.4,286047000.1,N
